| time (UTC) | temp F | wind direction | speed MPH | gust MPH | rain 1hr in | rain 24hr in | rain mn in | humidity % | barometer mb |
| 20260504050507 | 49 | 153 | 1.0 | 4.0 | 0.00 | 0.00 | 0.00 | 49 | 1013.0 |
| 20260504050020 | 49 | 165 | 1.0 | 5.0 | 0.00 | 0.00 | 0.00 | 49 | 1013.0 |
| 20260504045509 | 49 | 166 | 1.0 | 5.0 | 0.00 | 0.00 | 0.00 | 49 | 1013.1 |
| 20260504045008 | 49 | 162 | 1.0 | 5.0 | 0.00 | 0.00 | 0.00 | 49 | 1013.1 |
| 20260504044527 | 50 | 190 | 0.0 | 6.0 | 0.00 | 0.00 | 0.00 | 48 | 1013.0 |
| 20260504044011 | 50 | 183 | 2.0 | 6.0 | 0.00 | 0.00 | 0.00 | 48 | 1013.1 |
| 20260504043505 | 50 | 150 | 1.0 | 5.0 | 0.00 | 0.00 | 0.00 | 47 | 1013.0 |
| 20260504043016 | 50 | 182 | 0.0 | 4.0 | 0.00 | 0.00 | 0.00 | 47 | 1012.9 |
| 20260504042505 | 50 | 185 | 0.0 | 2.0 | 0.00 | 0.00 | 0.00 | 46 | 1012.8 |
| 20260504042006 | 50 | 185 | 0.0 | 5.0 | 0.00 | 0.00 | 0.00 | 47 | 1012.8 |
| 20260504041511 | 51 | 185 | 0.0 | 5.0 | 0.00 | 0.00 | 0.00 | 46 | 1012.8 |
| 20260504041005 | 51 | 185 | 1.0 | 5.0 | 0.00 | 0.00 | 0.00 | 46 | 1012.8 |
| 20260504040506 | 51 | 122 | 0.0 | 5.0 | 0.00 | 0.00 | 0.00 | 46 | 1012.7 |
| 20260504040010 | 51 | 149 | 2.0 | 5.0 | 0.00 | 0.00 | 0.00 | 45 | 1012.7 |
| 20260504035507 | 51 | 180 | 0.0 | 5.0 | 0.00 | 0.00 | 0.00 | 46 | 1012.7 |
| 20260504035013 | 51 | 180 | 1.0 | 5.0 | 0.00 | 0.00 | 0.00 | 44 | 1012.6 |
| 20260504034534 | 51 | 182 | 0.0 | 3.0 | 0.00 | 0.00 | 0.00 | 44 | 1012.6 |
| 20260504034006 | 51 | 184 | 1.0 | 3.0 | 0.00 | 0.00 | 0.00 | 44 | 1012.7 |
| 20260504033508 | 51 | 182 | 0.0 | 3.0 | 0.00 | 0.00 | 0.00 | 45 | 1012.7 |
| 20260504033025 | 51 | 182 | 0.0 | 2.0 | 0.00 | 0.00 | 0.00 | 44 | 1012.7 |
| 20260504032509 | 51 | 183 | 0.0 | 2.0 | 0.00 | 0.00 | 0.00 | 44 | 1012.8 |
| 20260504032008 | 52 | 188 | 0.0 | 5.0 | 0.00 | 0.00 | 0.00 | 44 | 1012.7 |
| 20260504031524 | 52 | 188 | 0.0 | 5.0 | 0.00 | 0.00 | 0.00 | 43 | 1012.7 |
| 20260504031006 | 52 | 188 | 1.0 | 5.0 | 0.00 | 0.00 | 0.00 | 43 | 1012.7 |
| 20260504030505 | 51 | 159 | 0.0 | 2.0 | 0.00 | 0.00 | 0.00 | 43 | 1012.7 |
| 20260504030033 | 51 | 136 | 0.0 | 6.0 | 0.00 | 0.00 | 0.00 | 43 | 1012.7 |
| 20260504025512 | 51 | 129 | 0.0 | 6.0 | 0.00 | 0.00 | 0.00 | 44 | 1012.7 |
| 20260504025007 | 50 | 302 | 0.0 | 3.0 | 0.00 | 0.00 | 0.00 | 45 | 1012.7 |
| 20260504024518 | 50 | 302 | 0.0 | 3.0 | 0.00 | 0.00 | 0.00 | 46 | 1012.6 |
| 20260504024014 | 49 | 334 | 0.0 | 2.0 | 0.00 | 0.00 | 0.00 | 47 | 1012.7 |
| 20260504023509 | 49 | 334 | 0.0 | 1.0 | 0.00 | 0.00 | 0.00 | 47 | 1012.7 |
| 20260504023012 | 48 | 334 | 0.0 | 0.0 | 0.00 | 0.00 | 0.00 | 51 | 1012.7 |
| 20260504022509 | 48 | 334 | 0.0 | 0.0 | 0.00 | 0.00 | 0.00 | 51 | 1012.7 |
| 20260504022011 | 48 | 334 | 0.0 | 0.0 | 0.00 | 0.00 | 0.00 | 54 | 1012.7 |
| 20260504021527 | 48 | 334 | 0.0 | 0.0 | 0.00 | 0.00 | 0.00 | 54 | 1012.7 |
| 20260504021007 | 48 | 334 | 0.0 | 0.0 | 0.00 | 0.00 | 0.00 | 56 | 1012.8 |
| 20260504020508 | 48 | 334 | 0.0 | 0.0 | 0.00 | 0.00 | 0.00 | 57 | 1012.8 |
| 20260504020027 | 48 | 334 | 0.0 | 0.0 | 0.00 | 0.00 | 0.00 | 56 | 1012.8 |
| 20260504015507 | 49 | 334 | 0.0 | 0.0 | 0.00 | 0.00 | 0.00 | 55 | 1012.7 |
| 20260504015007 | 49 | 334 | 0.0 | 1.0 | 0.00 | 0.00 | 0.00 | 54 | 1012.7 |
| 20260504014532 | 49 | 334 | 0.0 | 1.0 | 0.00 | 0.00 | 0.00 | 54 | 1012.6 |
| 20260504014010 | 49 | 334 | 0.0 | 0.0 | 0.00 | 0.00 | 0.00 | 52 | 1012.5 |
| 20260504013507 | 50 | 334 | 0.0 | 1.0 | 0.00 | 0.00 | 0.00 | 52 | 1012.5 |
| 20260504013023 | 50 | 334 | 0.0 | 1.0 | 0.00 | 0.00 | 0.00 | 52 | 1012.4 |
| 20260504012503 | 51 | 334 | 0.0 | 1.0 | 0.00 | 0.00 | 0.00 | 53 | 1012.4 |
| 20260504012004 | 51 | 334 | 0.0 | 1.0 | 0.00 | 0.00 | 0.00 | 52 | 1012.4 |
| 20260504011504 | 52 | 334 | 0.0 | 1.0 | 0.00 | 0.00 | 0.00 | 51 | 1012.4 |
| 20260504011004 | 52 | 334 | 0.0 | 1.0 | 0.00 | 0.00 | 0.00 | 48 | 1012.3 |
| 20260504010504 | 53 | 334 | 0.0 | 0.0 | 0.00 | 0.00 | 0.00 | 46 | 1012.2 |
| 20260504010010 | 53 | 334 | 0.0 | 0.0 | 0.00 | 0.00 | 0.00 | 44 | 1012.1 |
| 20260504005505 | 54 | 334 | 0.0 | 2.0 | 0.00 | 0.00 | 0.00 | 44 | 1012.0 |
| 20260504005004 | 54 | 334 | 0.0 | 2.0 | 0.00 | 0.00 | 0.00 | 39 | 1011.9 |
| 20260504004514 | 54 | 335 | 0.0 | 2.0 | 0.00 | 0.00 | 0.00 | 39 | 1011.8 |
| 20260504004007 | 54 | 335 | 0.0 | 2.0 | 0.00 | 0.00 | 0.00 | 38 | 1011.8 |
| 20260504003504 | 55 | 335 | 0.0 | 3.0 | 0.00 | 0.00 | 0.00 | 38 | 1011.8 |
| 20260504003021 | 55 | 335 | 0.0 | 3.0 | 0.00 | 0.00 | 0.00 | 37 | 1011.8 |
| 20260504002507 | 55 | 335 | 0.0 | 2.0 | 0.00 | 0.00 | 0.00 | 37 | 1011.6 |
| 20260504002003 | 56 | 335 | 0.0 | 4.0 | 0.00 | 0.00 | 0.00 | 36 | 1011.5 |
| 20260504001504 | 56 | 335 | 0.0 | 4.0 | 0.00 | 0.00 | 0.00 | 35 | 1011.5 |
| 20260504001003 | 56 | 328 | 0.0 | 4.0 | 0.00 | 0.00 | 0.00 | 35 | 1011.4 |
| 20260504000503 | 57 | 321 | 1.0 | 4.0 | 0.00 | 0.00 | 0.00 | 35 | 1011.4 |
| 20260504000005 | 57 | 321 | 0.0 | 4.0 | 0.00 | 0.00 | 0.00 | 34 | 1011.4 |
| 20260503235503 | 57 | 325 | 1.0 | 4.0 | 0.00 | 0.00 | 0.00 | 34 | 1011.3 |
| 20260503235006 | 57 | 325 | 0.0 | 5.0 | 0.00 | 0.00 | 0.00 | 34 | 1011.3 |
| 20260503234529 | 58 | 325 | 1.0 | 9.0 | 0.00 | 0.00 | 0.00 | 33 | 1011.2 |
| 20260503234003 | 58 | 320 | 3.0 | 9.0 | 0.00 | 0.00 | 0.00 | 32 | 1011.3 |
| 20260503233507 | 58 | 5 | 3.0 | 8.0 | 0.00 | 0.00 | 0.00 | 32 | 1011.2 |
| 20260503233016 | 58 | 308 | 2.0 | 4.0 | 0.00 | 0.00 | 0.00 | 32 | 1011.1 |
| 20260503232504 | 58 | 228 | 1.0 | 8.0 | 0.00 | 0.00 | 0.00 | 31 | 1011.1 |
| 20260503232004 | 58 | 336 | 1.0 | 10.0 | 0.00 | 0.00 | 0.00 | 31 | 1011.1 |
| 20260503231516 | 58 | 319 | 5.0 | 10.0 | 0.00 | 0.00 | 0.00 | 31 | 1011.0 |
| 20260503231009 | 58 | 306 | 3.0 | 8.0 | 0.00 | 0.00 | 0.00 | 31 | 1010.9 |
| 20260503230504 | 58 | 318 | 2.0 | 9.0 | 0.00 | 0.00 | 0.00 | 31 | 1011.0 |
| 20260503230004 | 58 | 343 | 3.0 | 9.0 | 0.00 | 0.00 | 0.00 | 30 | 1011.0 |
| 20260503225504 | 59 | 349 | 3.0 | 9.0 | 0.00 | 0.00 | 0.00 | 30 | 1010.9 |
| 20260503225005 | 59 | 326 | 4.0 | 10.0 | 0.00 | 0.00 | 0.00 | 31 | 1010.9 |
| 20260503224509 | 59 | 348 | 2.0 | 10.0 | 0.00 | 0.00 | 0.00 | 30 | 1010.8 |
| 20260503224005 | 59 | 314 | 3.0 | 12.0 | 0.00 | 0.00 | 0.00 | 30 | 1010.7 |
| 20260503223507 | 59 | 326 | 5.0 | 12.0 | 0.00 | 0.00 | 0.00 | 29 | 1010.8 |
| 20260503223009 | 59 | 340 | 3.0 | 12.0 | 0.00 | 0.00 | 0.00 | 30 | 1010.8 |
| 20260503222503 | 59 | 323 | 6.0 | 13.0 | 0.00 | 0.00 | 0.00 | 29 | 1010.8 |
| 20260503222007 | 59 | 303 | 2.0 | 13.0 | 0.00 | 0.00 | 0.00 | 29 | 1010.7 |
| 20260503221519 | 59 | 289 | 0.0 | 9.0 | 0.00 | 0.00 | 0.00 | 30 | 1010.8 |
| 20260503221006 | 59 | 360 | 1.0 | 15.0 | 0.00 | 0.00 | 0.00 | 30 | 1010.8 |
| 20260503220511 | 59 | 52 | 4.0 | 15.0 | 0.00 | 0.00 | 0.00 | 29 | 1010.8 |
| 20260503220024 | 59 | 320 | 5.0 | 15.0 | 0.00 | 0.00 | 0.00 | 29 | 1010.8 |
| 20260503215504 | 59 | 319 | 0.0 | 17.0 | 0.00 | 0.00 | 0.00 | 30 | 1010.8 |
| 20260503215003 | 59 | 304 | 5.0 | 17.0 | 0.00 | 0.00 | 0.00 | 27 | 1010.9 |
| 20260503214507 | 59 | 317 | 5.0 | 15.0 | 0.00 | 0.00 | 0.00 | 28 | 1010.9 |
| 20260503214004 | 60 | 330 | 3.0 | 12.0 | 0.00 | 0.00 | 0.00 | 29 | 1010.9 |
| 20260503213508 | 60 | 305 | 4.0 | 19.0 | 0.00 | 0.00 | 0.00 | 29 | 1010.8 |
| 20260503213012 | 60 | 321 | 7.0 | 19.0 | 0.00 | 0.00 | 0.00 | 27 | 1010.8 |
| 20260503212506 | 60 | 317 | 2.0 | 15.0 | 0.00 | 0.00 | 0.00 | 28 | 1010.7 |
| 20260503212004 | 60 | 279 | 5.0 | 16.0 | 0.00 | 0.00 | 0.00 | 31 | 1010.7 |
| 20260503211516 | 59 | 345 | 5.0 | 16.0 | 0.00 | 0.00 | 0.00 | 28 | 1010.7 |
| 20260503211006 | 59 | 340 | 4.0 | 14.0 | 0.00 | 0.00 | 0.00 | 29 | 1010.7 |
| 20260503210510 | 59 | 337 | 2.0 | 13.0 | 0.00 | 0.00 | 0.00 | 29 | 1010.6 |
| 20260503210011 | 59 | 315 | 4.0 | 17.0 | 0.00 | 0.00 | 0.00 | 30 | 1010.7 |
| 20260503205507 | 59 | 338 | 9.0 | 17.0 | 0.00 | 0.00 | 0.00 | 28 | 1010.7 |
| 20260503205011 | 60 | 352 | 6.0 | 17.0 | 0.00 | 0.00 | 0.00 | 30 | 1010.7 |
| 20260503204507 | 60 | 315 | 4.0 | 14.0 | 0.00 | 0.00 | 0.00 | 29 | 1010.7 |
| 20260503204009 | 59 | 343 | 3.0 | 17.0 | 0.00 | 0.00 | 0.00 | 32 | 1010.7 |
| 20260503203510 | 59 | 330 | 2.0 | 18.0 | 0.00 | 0.00 | 0.00 | 32 | 1010.7 |
| 20260503203012 | 59 | 322 | 8.0 | 18.0 | 0.00 | 0.00 | 0.00 | 29 | 1010.7 |
| 20260503202505 | 59 | 308 | 5.0 | 15.0 | 0.00 | 0.00 | 0.00 | 30 | 1010.7 |
| 20260503202009 | 58 | 347 | 5.0 | 15.0 | 0.00 | 0.00 | 0.00 | 30 | 1010.7 |
| 20260503201514 | 59 | 337 | 5.0 | 15.0 | 0.00 | 0.00 | 0.00 | 29 | 1010.7 |
| 20260503201007 | 59 | 329 | 4.0 | 15.0 | 0.00 | 0.00 | 0.00 | 33 | 1010.7 |
| 20260503200506 | 59 | 313 | 5.0 | 14.0 | 0.00 | 0.00 | 0.00 | 29 | 1010.7 |
| 20260503200020 | 58 | 325 | 5.0 | 14.0 | 0.00 | 0.00 | 0.00 | 29 | 1010.8 |
| 20260503195509 | 58 | 298 | 4.0 | 14.0 | 0.00 | 0.00 | 0.00 | 30 | 1010.9 |
| 20260503195006 | 58 | 221 | 5.0 | 16.0 | 0.00 | 0.00 | 0.00 | 31 | 1010.8 |
| 20260503194522 | 58 | 246 | 7.0 | 16.0 | 0.00 | 0.00 | 0.00 | 31 | 1010.9 |
| 20260503194007 | 58 | 319 | 4.0 | 21.0 | 0.00 | 0.00 | 0.00 | 32 | 1010.9 |
| 20260503193510 | 57 | 327 | 6.0 | 21.0 | 0.00 | 0.00 | 0.00 | 33 | 1011.1 |
| 20260503193022 | 57 | 311 | 6.0 | 13.0 | 0.00 | 0.00 | 0.00 | 31 | 1011.2 |
| 20260503192510 | 57 | 327 | 3.0 | 14.0 | 0.00 | 0.00 | 0.00 | 33 | 1011.0 |
| 20260503192008 | 57 | 348 | 3.0 | 14.0 | 0.00 | 0.00 | 0.00 | 33 | 1011.2 |
| 20260503191510 | 57 | 178 | 4.0 | 14.0 | 0.00 | 0.00 | 0.00 | 33 | 1011.2 |
| 20260503191010 | 57 | 323 | 4.0 | 10.0 | 0.00 | 0.00 | 0.00 | 33 | 1011.2 |
| 20260503190508 | 57 | 234 | 0.0 | 13.0 | 0.00 | 0.00 | 0.00 | 35 | 1011.3 |
| 20260503190017 | 57 | 319 | 5.0 | 15.0 | 0.00 | 0.00 | 0.00 | 31 | 1011.3 |
| 20260503185507 | 57 | 324 | 7.0 | 15.0 | 0.00 | 0.00 | 0.00 | 34 | 1011.4 |
| 20260503185009 | 56 | 309 | 2.0 | 13.0 | 0.00 | 0.00 | 0.00 | 37 | 1011.4 |
| 20260503184534 | 56 | 331 | 3.0 | 15.0 | 0.00 | 0.00 | 0.00 | 37 | 1011.4 |
| 20260503184008 | 57 | 309 | 7.0 | 15.0 | 0.00 | 0.00 | 0.00 | 35 | 1011.4 |
| 20260503183509 | 56 | 22 | 4.0 | 14.0 | 0.00 | 0.00 | 0.00 | 34 | 1011.3 |
| 20260503183024 | 56 | 319 | 5.0 | 12.0 | 0.00 | 0.00 | 0.00 | 33 | 1011.3 |
| 20260503182510 | 56 | 5 | 6.0 | 12.0 | 0.00 | 0.00 | 0.00 | 35 | 1011.3 |
| 20260503182006 | 56 | 207 | 1.0 | 12.0 | 0.00 | 0.00 | 0.00 | 35 | 1011.2 |
| 20260503181522 | 55 | 290 | 2.0 | 19.0 | 0.00 | 0.00 | 0.00 | 37 | 1011.5 |
| 20260503181011 | 54 | 252 | 6.0 | 19.0 | 0.00 | 0.00 | 0.00 | 36 | 1011.4 |
| 20260503180506 | 54 | 340 | 4.0 | 17.0 | 0.00 | 0.00 | 0.00 | 37 | 1011.5 |
| 20260503180024 | 54 | 11 | 6.0 | 20.0 | 0.00 | 0.00 | 0.00 | 36 | 1011.5 |
| 20260503175505 | 54 | 313 | 5.0 | 20.0 | 0.00 | 0.00 | 0.00 | 36 | 1011.6 |
| 20260503175010 | 54 | 330 | 2.0 | 13.0 | 0.00 | 0.00 | 0.00 | 40 | 1011.5 |
| 20260503174515 | 54 | 25 | 3.0 | 13.0 | 0.00 | 0.00 | 0.00 | 39 | 1011.6 |
| 20260503174008 | 54 | 336 | 5.0 | 20.0 | 0.00 | 0.00 | 0.00 | 39 | 1011.7 |
| 20260503173508 | 53 | 315 | 8.0 | 20.0 | 0.00 | 0.00 | 0.00 | 40 | 1011.9 |
| 20260503173022 | 53 | 72 | 6.0 | 16.0 | 0.00 | 0.00 | 0.00 | 39 | 1011.8 |
| 20260503172508 | 53 | 315 | 4.0 | 15.0 | 0.00 | 0.00 | 0.00 | 38 | 1011.8 |
| 20260503172011 | 53 | 329 | 6.0 | 15.0 | 0.00 | 0.00 | 0.00 | 41 | 1011.9 |
| 20260503171525 | 53 | 352 | 6.0 | 15.0 | 0.00 | 0.00 | 0.00 | 39 | 1011.9 |
| 20260503171005 | 53 | 28 | 4.0 | 16.0 | 0.00 | 0.00 | 0.00 | 42 | 1011.9 |
| 20260503170508 | 52 | 329 | 9.0 | 16.0 | 0.00 | 0.00 | 0.00 | 39 | 1011.9 |
| 20260503151004 | 51 | 69 | 2.0 | 14.0 | 0.00 | 0.00 | 0.00 | 43 | 1012.0 |
| 20260503150503 | 51 | 352 | 8.0 | 14.0 | 0.00 | 0.00 | 0.00 | 38 | 1012.1 |
| 20260503131003 | 47 | 344 | 4.0 | 10.0 | 0.00 | 0.00 | 0.00 | 54 | 1012.3 |
| 20260503130507 | 46 | 204 | 3.0 | 11.0 | 0.00 | 0.00 | 0.00 | 54 | 1012.2 |
| 20260503110506 | 43 | 332 | 1.0 | 8.0 | 0.00 | 0.00 | 0.00 | 59 | 1011.8 |
| 20260503090510 | 44 | 332 | 1.0 | 4.0 | 0.00 | 0.01 | 0.00 | 56 | 1010.7 |
| 20260503081525 | 45 | 306 | 0.0 | 6.0 | 0.00 | 0.01 | 0.00 | 55 | 1010.9 |
| 20260503081008 | 45 | 305 | 2.0 | 7.0 | 0.00 | 0.01 | 0.00 | 55 | 1010.9 |
| 20260503080507 | 45 | 5 | 1.0 | 7.0 | 0.00 | 0.01 | 0.00 | 56 | 1010.9 |
| 20260503072502 | 45 | 23 | 0.0 | 2.0 | 0.00 | 0.01 | 0.00 | 56 | 1010.8 |
| 20260503072006 | 45 | 324 | 0.0 | 2.0 | 0.00 | 0.01 | 0.00 | 55 | 1010.8 |
| 20260503071509 | 45 | 324 | 0.0 | 2.0 | 0.00 | 0.01 | 0.00 | 54 | 1010.8 |
| 20260503071003 | 45 | 319 | 0.0 | 1.0 | 0.00 | 0.01 | 0.00 | 55 | 1010.8 |
| 20260503070507 | 45 | 319 | 0.0 | 3.0 | 0.00 | 0.01 | 0.00 | 55 | 1010.9 |